Total_Precipitation_Accumulation
0.54 0.76 1.16 1.51 1.61 1.08 0.69 0.46 0.34 0.30 0.32 0.18 0.10 0.08 0.18 0.37 0.59 0.79 0.63 0.53 0.39 0.33 0.27 0.35 0.51 0.49 0.44 0.46 0.55 0.64 0.68 0.79 0.68 0.57 0.48 0.39 0.32 0.31 0.29 0.20 0.21 0.25 0.19 0.16 0.22 0.35 0.39 0.43 0.45
0.63 1.22 1.74 2.14 1.67 0.81 0.62 0.47 0.45 0.39 0.25 0.17 0.11 0.08 0.12 0.14 0.14 0.30 0.65 0.77 0.46 0.38 0.34 0.43 0.57 0.54 0.56 0.60 0.64 0.70 0.76 0.84 0.76 0.63 0.50 0.41 0.38 0.36 0.34 0.42 0.47 0.34 0.19 0.15 0.21 0.35 0.38 0.38 0.45
0.84 1.62 2.28 1.99 1.11 0.66 0.70 0.56 0.49 0.34 0.20 0.16 0.11 0.07 0.14 0.19 0.23 0.48 0.78 0.71 0.52 0.40 0.43 0.60 0.71 0.63 0.62 0.68 0.78 0.81 0.86 0.88 0.79 0.63 0.47 0.45 0.48 0.54 0.63 0.66 0.53 0.33 0.22 0.20 0.23 0.33 0.35 0.31 0.31
1.00 1.75 1.84 1.31 0.91 0.68 0.66 0.58 0.40 0.33 0.20 0.10 0.07 0.09 0.14 0.19 0.31 0.56 0.67 0.62 0.55 0.43 0.38 0.52 0.68 0.66 0.66 0.74 0.86 0.84 0.87 0.92 0.88 0.70 0.55 0.51 0.52 0.54 0.60 0.65 0.54 0.36 0.26 0.22 0.24 0.30 0.34 0.33 0.29
1.06 1.48 1.51 1.14 0.87 0.70 0.58 0.48 0.32 0.30 0.21 0.12 0.07 0.17 0.29 0.37 0.37 0.47 0.65 0.69 0.56 0.46 0.39 0.43 0.58 0.58 0.62 0.76 0.89 0.91 0.95 0.97 0.93 0.73 0.64 0.64 0.60 0.55 0.60 0.62 0.56 0.40 0.31 0.28 0.28 0.31 0.32 0.31 0.31
1.23 1.33 1.52 1.32 1.02 0.82 0.58 0.40 0.25 0.24 0.20 0.15 0.14 0.24 0.34 0.47 0.48 0.50 0.52 0.58 0.59 0.57 0.47 0.42 0.56 0.61 0.62 0.70 0.79 0.86 0.92 0.97 0.91 0.73 0.67 0.67 0.65 0.60 0.59 0.61 0.58 0.47 0.44 0.39 0.36 0.34 0.33 0.31 0.31
1.13 1.22 1.33 1.10 1.02 1.02 0.67 0.34 0.28 0.27 0.25 0.21 0.19 0.32 0.37 0.48 0.42 0.53 0.58 0.59 0.66 0.65 0.60 0.53 0.54 0.59 0.70 0.79 0.84 0.86 0.90 0.93 0.97 0.85 0.77 0.75 0.67 0.57 0.54 0.53 0.52 0.51 0.52 0.47 0.41 0.37 0.34 0.32 0.32
0.76 0.83 0.93 0.95 0.92 0.92 0.57 0.27 0.21 0.19 0.19 0.13 0.16 0.30 0.39 0.40 0.39 0.51 0.59 0.60 0.61 0.64 0.63 0.58 0.60 0.68 0.68 0.74 0.93 0.99 1.01 1.05 1.08 0.96 0.83 0.79 0.65 0.56 0.54 0.47 0.47 0.52 0.59 0.61 0.54 0.46 0.40 0.36 0.36
0.74 0.84 1.05 1.20 0.94 0.71 0.39 0.27 0.19 0.14 0.12 0.10 0.11 0.19 0.26 0.30 0.39 0.48 0.58 0.60 0.61 0.58 0.58 0.58 0.61 0.73 0.78 0.76 0.86 1.12 1.16 1.19 1.16 1.02 0.92 0.82 0.63 0.53 0.53 0.47 0.61 0.60 0.62 0.65 0.65 0.61 0.52 0.42 0.38
0.90 1.06 1.22 1.04 0.62 0.45 0.34 0.29 0.20 0.16 0.14 0.12 0.14 0.21 0.29 0.37 0.46 0.51 0.55 0.57 0.60 0.61 0.56 0.55 0.54 0.60 0.69 0.74 0.85 1.01 1.00 1.01 1.00 1.15 1.05 0.92 0.88 0.75 0.47 0.51 0.69 0.80 0.80 0.73 0.67 0.69 0.54 0.40 0.31
0.78 0.88 0.72 0.65 0.45 0.31 0.26 0.22 0.20 0.19 0.21 0.16 0.18 0.22 0.31 0.41 0.50 0.54 0.57 0.56 0.59 0.57 0.52 0.47 0.44 0.44 0.50 0.63 0.80 0.90 1.01 1.11 1.07 1.03 1.03 1.01 0.88 0.69 0.56 0.59 0.59 0.64 0.67 0.56 0.57 0.52 0.40 0.33 0.31
0.65 0.54 0.44 0.35 0.26 0.26 0.28 0.23 0.19 0.18 0.19 0.16 0.17 0.23 0.32 0.37 0.45 0.48 0.51 0.51 0.49 0.50 0.52 0.46 0.36 0.36 0.38 0.46 0.55 0.66 0.80 0.92 0.95 0.81 0.77 0.85 0.87 0.75 0.62 0.61 0.59 0.58 0.61 0.65 0.65 0.60 0.50 0.42 0.37
0.72 0.54 0.39 0.36 0.32 0.29 0.26 0.25 0.18 0.14 0.18 0.18 0.21 0.27 0.33 0.39 0.45 0.48 0.44 0.44 0.42 0.47 0.53 0.49 0.41 0.39 0.37 0.41 0.43 0.44 0.63 0.80 0.90 0.92 0.79 0.77 0.79 0.77 0.70 0.58 0.59 0.54 0.56 0.60 0.61 0.61 0.58 0.57 0.51
0.62 0.49 0.42 0.40 0.34 0.25 0.22 0.21 0.17 0.20 0.22 0.20 0.19 0.23 0.29 0.38 0.43 0.44 0.42 0.42 0.41 0.44 0.53 0.53 0.51 0.51 0.46 0.40 0.40 0.42 0.51 0.63 0.71 0.86 0.88 0.82 0.75 0.71 0.73 0.67 0.68 0.68 0.65 0.65 0.63 0.60 0.66 0.65 0.56
0.35 0.39 0.40 0.35 0.31 0.27 0.24 0.22 0.18 0.25 0.26 0.22 0.19 0.19 0.23 0.30 0.34 0.36 0.37 0.37 0.41 0.42 0.44 0.45 0.47 0.54 0.54 0.52 0.50 0.50 0.59 0.61 0.68 0.74 0.76 0.83 0.74 0.67 0.73 0.75 0.75 0.75 0.76 0.75 0.75 0.73 0.76 0.71 0.65
0.31 0.42 0.51 0.40 0.34 0.34 0.31 0.24 0.19 0.27 0.25 0.23 0.22 0.22 0.22 0.24 0.28 0.31 0.34 0.34 0.37 0.37 0.37 0.42 0.41 0.48 0.56 0.61 0.64 0.69 0.71 0.75 0.82 0.79 0.76 0.76 0.72 0.69 0.78 0.79 0.81 0.86 0.79 0.76 0.82 0.86 0.87 0.82 0.77
0.50 0.45 0.44 0.39 0.32 0.31 0.29 0.21 0.20 0.25 0.22 0.21 0.20 0.22 0.21 0.23 0.26 0.29 0.31 0.32 0.33 0.34 0.36 0.40 0.43 0.49 0.55 0.60 0.71 0.81 0.89 0.98 1.11 1.08 1.03 0.97 0.85 0.86 0.93 0.97 0.98 1.00 1.02 0.94 0.83 0.84 0.89 0.94 0.91
0.58 0.34 0.26 0.24 0.25 0.23 0.22 0.19 0.19 0.21 0.19 0.17 0.16 0.15 0.18 0.22 0.25 0.28 0.30 0.33 0.34 0.34 0.36 0.40 0.47 0.55 0.65 0.80 1.02 1.26 1.34 1.51 1.73 1.68 1.53 1.35 1.17 1.13 1.22 1.20 1.16 1.21 1.28 1.27 1.06 1.08 1.03 0.95 0.97
0.33 0.22 0.16 0.16 0.18 0.17 0.14 0.13 0.14 0.14 0.13 0.13 0.12 0.12 0.12 0.13 0.17 0.20 0.22 0.25 0.24 0.24 0.28 0.35 0.40 0.50 0.62 0.84 1.17 1.60 1.82 1.95 1.97 1.99 1.90 1.69 1.46 1.46 1.61 1.56 1.55 1.53 1.49 1.44 1.37 1.46 1.40 1.15 1.04
0.22 0.17 0.14 0.11 0.12 0.10 0.07 0.06 0.06 0.07 0.07 0.08 0.09 0.09 0.09 0.11 0.12 0.11 0.13 0.15 0.14 0.15 0.17 0.27 0.33 0.42 0.56 0.85 1.17 1.52 1.88 1.97 1.99 1.99 1.95 1.83 1.70 1.70 1.73 1.89 1.98 1.95 2.01 1.97 1.77 1.86 1.87 1.56 1.32
0.19 0.18 0.15 0.11 0.10 0.07 0.05 0.04 0.04 0.04 0.05 0.06 0.06 0.07 0.08 0.10 0.11 0.09 0.08 0.09 0.11 0.11 0.12 0.18 0.24 0.39 0.67 1.01 1.33 1.53 1.82 1.95 2.01 1.97 1.97 2.00 1.95 1.85 1.87 1.97 2.10 2.11 2.17 2.22 2.27 2.19 2.25 2.04 1.69
0.19 0.14 0.10 0.08 0.08 0.06 0.05 0.06 0.05 0.06 0.10 0.12 0.13 0.13 0.15 0.17 0.14 0.12 0.09 0.07 0.08 0.09 0.11 0.14 0.20 0.40 0.74 1.08 1.34 1.59 1.94 2.05 2.03 2.06 2.05 2.06 2.09 2.04 2.10 2.11 2.20 2.22 2.22 2.29 2.38 2.33 2.41 2.43 2.07
0.15 0.11 0.09 0.08 0.08 0.05 0.03 0.05 0.05 0.08 0.16 0.21 0.23 0.23 0.23 0.20 0.15 0.12 0.10 0.09 0.10 0.10 0.13 0.20 0.34 0.52 0.78 0.99 1.24 1.60 1.86 1.98 2.14 2.08 2.06 2.06 2.13 2.15 2.16 2.22 2.35 2.33 2.28 2.27 2.47 2.50 2.55 2.46 2.38
0.10 0.08 0.07 0.08 0.08 0.06 0.03 0.07 0.13 0.17 0.19 0.21 0.22 0.23 0.23 0.20 0.16 0.16 0.15 0.15 0.16 0.18 0.24 0.33 0.49 0.64 0.85 1.02 1.22 1.41 1.67 1.82 1.97 2.07 2.01 2.00 2.06 2.16 2.05 1.98 2.11 2.16 2.17 2.17 2.33 2.48 2.58 2.52 2.55
0.05 0.07 0.13 0.14 0.17 0.13 0.07 0.16 0.28 0.23 0.18 0.19 0.20 0.21 0.23 0.24 0.26 0.30 0.31 0.34 0.41 0.44 0.48 0.56 0.65 0.76 0.87 0.97 1.06 1.13 1.30 1.47 1.54 1.71 1.80 1.92 1.93 1.99 2.02 1.91 1.90 1.93 1.87 1.89 1.99 2.05 2.11 2.23 2.37
0.02 0.05 0.12 0.16 0.16 0.15 0.17 0.36 0.41 0.27 0.23 0.22 0.23 0.25 0.29 0.37 0.43 0.53 0.61 0.69 0.76 0.75 0.74 0.81 0.86 0.84 0.83 0.87 0.94 0.97 1.04 1.13 1.21 1.26 1.30 1.48 1.65 1.69 1.77 1.76 1.69 1.73 1.78 1.77 1.82 1.83 1.84 1.86 1.92
0.02 0.04 0.07 0.14 0.12 0.13 0.20 0.43 0.44 0.32 0.31 0.31 0.32 0.33 0.42 0.61 0.71 0.81 0.91 0.92 0.93 0.90 0.85 0.86 0.89 0.86 0.84 0.84 0.84 0.80 0.79 0.86 0.97 1.00 1.07 1.14 1.24 1.26 1.32 1.41 1.48 1.55 1.60 1.66 1.77 1.81 1.80 1.75 1.72
0.03 0.07 0.13 0.26 0.34 0.30 0.31 0.48 0.52 0.44 0.39 0.37 0.41 0.49 0.65 0.91 1.06 1.19 1.27 1.17 1.10 1.09 1.13 1.02 0.93 0.85 0.82 0.82 0.82 0.76 0.73 0.78 0.81 0.82 0.89 0.87 0.89 0.91 0.96 1.08 1.25 1.45 1.55 1.61 1.66 1.68 1.74 1.76 1.72
0.10 0.16 0.24 0.37 0.45 0.57 0.70 0.85 0.68 0.58 0.58 0.65 0.75 0.83 1.00 1.26 1.43 1.52 1.53 1.43 1.23 1.10 1.10 1.04 0.93 0.82 0.72 0.71 0.76 0.76 0.71 0.73 0.77 0.76 0.71 0.66 0.69 0.75 0.86 0.90 1.05 1.21 1.37 1.54 1.67 1.66 1.66 1.67 1.65
0.22 0.37 0.50 0.74 0.74 0.67 0.87 1.09 0.84 0.69 0.71 0.74 0.80 0.92 1.10 1.22 1.30 1.34 1.30 1.29 1.18 1.08 1.00 0.95 0.85 0.71 0.65 0.70 0.73 0.75 0.67 0.61 0.64 0.64 0.66 0.58 0.55 0.60 0.69 0.81 0.98 1.12 1.21 1.24 1.31 1.38 1.40 1.41 1.44